WATER LEVELS

Guaranteed water level and forecast    Ústí nad Labem-Střekov

Guaranteed water level
Nad 275 cm
on 17.01.2019 more information
Forecast
285 cm
on 17.01.2019 07:00
Tendency
steady state
on 17.01.2019 metodika tendence
Forecast
(Source data ČHMÚ a Povodí Labe)

Ústí nad Labem

Date and time (UTC) H (cm) Q (m3/s)
17. 1. 2019 08:30 288 375
17. 1. 2019 08:00 287 373
17. 1. 2019 07:00 287 373
17. 1. 2019 06:00 285 368
17. 1. 2019 05:00 286 370
17. 1. 2019 04:00 290 380
17. 1. 2019 03:00 299 402
17. 1. 2019 02:00 298 400
17. 1. 2019 01:00 295 392
17. 1. 2019 00:00 284 366
16. 1. 2019 23:00 279 354
16. 1. 2019 22:00 278 351
16. 1. 2019 21:00 277 349
16. 1. 2019 20:00 277 349

H - vodni stav, Q - discharge
more information

Mělník

Date and time (UTC) H (cm) Q (m3/s)
17. 1. 2019 08:30 284 -
17. 1. 2019 08:00 283 -
17. 1. 2019 07:00 289 335
17. 1. 2019 06:00 289 -
17. 1. 2019 05:00 289 -
17. 1. 2019 04:00 288 -
17. 1. 2019 03:00 288 -
17. 1. 2019 02:00 289 -
17. 1. 2019 01:00 290 -
17. 1. 2019 00:00 289 -
16. 1. 2019 23:00 289 -
16. 1. 2019 22:00 290 -
16. 1. 2019 21:00 290 -
16. 1. 2019 20:00 290 -

H - vodni stav, Q - discharge
more information

Kostelec nad Labem

Date and time (UTC) H (cm) Q (m3/s)
17. 1. 2019 08:30 409 125
17. 1. 2019 08:00 410 121
17. 1. 2019 07:00 409 119
17. 1. 2019 06:00 409 118
17. 1. 2019 05:00 408 118
17. 1. 2019 04:00 408 119
17. 1. 2019 03:00 408 115
17. 1. 2019 02:00 408 115
17. 1. 2019 01:00 408 116
17. 1. 2019 00:00 407 118
16. 1. 2019 23:00 407 116
16. 1. 2019 22:00 407 118
16. 1. 2019 21:00 407 117
16. 1. 2019 20:00 407 117

H - vodni stav, Q - discharge
more information

Přelouč

Date and time (UTC) H (cm) Q (m3/s)
17. 1. 2019 08:30 99 58
17. 1. 2019 08:00 98 57
17. 1. 2019 07:00 98 57
17. 1. 2019 06:00 98 57
17. 1. 2019 05:00 98 57
17. 1. 2019 04:00 97 56
17. 1. 2019 03:00 97 56
17. 1. 2019 02:00 97 56
17. 1. 2019 01:00 98 57
17. 1. 2019 00:00 98 57
16. 1. 2019 23:00 99 58
16. 1. 2019 22:00 103 62
16. 1. 2019 21:00 104 63
16. 1. 2019 20:00 103 62

H - vodni stav, Q - discharge
more information

Praha-Chuchle

Date and time (UTC) H (cm) Q (m3/s)
17. 1. 2019 08:30 83 215
17. 1. 2019 08:00 83 215
17. 1. 2019 07:00 84 220
17. 1. 2019 06:00 83 215
17. 1. 2019 05:00 84 220
17. 1. 2019 04:00 84 220
17. 1. 2019 03:00 84 220
17. 1. 2019 02:00 85 225
17. 1. 2019 01:00 85 225
17. 1. 2019 00:00 85 225
16. 1. 2019 23:00 85 225
16. 1. 2019 22:00 84 220
16. 1. 2019 21:00 85 225
16. 1. 2019 20:00 85 225

H - vodni stav, Q - discharge
more information

České Budějovice

Date and time (UTC) H (cm) Q (m3/s)
17. 1. 2019 08:30 113 39
17. 1. 2019 08:00 113 38
17. 1. 2019 07:00 113 38
17. 1. 2019 06:00 114 39
17. 1. 2019 05:00 112 37
17. 1. 2019 04:00 113 37
17. 1. 2019 03:00 113 39
17. 1. 2019 02:00 112 39
17. 1. 2019 01:00 113 37
17. 1. 2019 00:00 114 38
16. 1. 2019 23:00 113 39
16. 1. 2019 22:00 111 35
16. 1. 2019 21:00 114 39
16. 1. 2019 20:00 113 39

H - vodni stav, Q - discharge
more information
Source data
Labe Basin Vltava Basin ČHMÚ